Showing default

YAOGAN-39 04A, 58141

Orbit data source: Space-Track

YAOGAN-39 04A, 58141 is a payload satellite owned by PLA GAD (CN) in LEO that was launched on Mon, 23 Oct 2023 UTC via a CHANG ZHENG 2D launch vehicle from the Xichang Space Center, China (XSC). Payload-class satellites include a variety of spacecraft equipped with specific instruments for various scientific and technological missions. These include communications satellites like Starlink; space stations such as the ISS; scientific satellites like the Hubble; Earth observation satellites from companies like Planet Labs, Umbra, and HawkEye 360; GPS; miniature CubeSats for education and research; and military/defense satellites.

Loading next visibility...
Identifier
58141, 2023-163A
Orbit
LEO
Last TLE update
9 hours ago
Origin
Manufacturer
DFH
Mission
Operational Defense Sigint
Bus & Motor
Unknown
Mass
~300 kg wet, ~300 kg dry
Launch date (UTC)
2023-10-23 (2 years ago)
Launch vehicle
CHANG ZHENG 2D
Launch site
Xichang Space Center, China (XSC)
Object type
Payload
Rocket body
Debris
Shape & HBR
Box + 2 Pan, 5 m
Radar Cross Section
11.063 m², Large (>1 m²)

Expand to show TLE details & history

TLE from 9 hours ago
0 YAOGAN-39 04A
1 58141U 23163A   25181.88014501  .00009442  00000-0  39149-3 0  9996
2 58141  34.9999  34.0794 0005406  60.5668 299.5585 15.23119608 93985
Epoch: 2025-06-30T21:07Z
TLE epoch observation values (Epoch: 2025-06-30T21:07:24.528Z)
Latitude
-0.00008°
Longitude
158.04348°
Altitude
493.513 km
Speed
7.621 km/s
True Right ascension
02h 16m 19s
True Declination
0° 00' 00"
Sunlit
Object was in daylight at epoch
Visualization orbit readout
Latitude
-7.74225°
Longitude
-13.10559°
Altitude
499.019 km
Speed
7.615 km/s
Apparent Right ascension
11h 48m 54s
Apparent Declination
-49° 12' 43"
Sunlit
Object is in full shadow
Visualization observer readout
Local Sidereal Time
17:27:42
Azimuth
226.401° WSW
Elevation
-26.076°
Doppler factor
1
Orbital elements
Apogee altitude
503.406 km
Perigee altitude
495.97 km
Semi-major axis
6,877.825 km
Eccentricity
0.00054
Inclination
34.9999°
RAAN
34.0794°
Arg. of periapsis
60.5668°
True anomaly
Unknown
Mean anomaly
299.5585°
Eccentric anomaly
Unknown
Mean motion
3.8051 °/min
Orbital period
94.61 mins
BSTAR
0.00039149
Loading maneuver chart data...
Loading SW <> Apogee altitude chart data...
Loading historical data...
Loading historical data...
Loading historical data...
Loading historical data...
Loading historical data...
Loading historical data...
Loading historical data...
Other satellites on launch #163 in the year 2023 (2023-10-23 UTC)

YAOGAN-39 04A Visibility forecast

Observer location: undefined°, undefined°

Span
Click to sort rows by Start time (UTC) header in descending order
Start Az.
Max El. time (UTC)
Max El. Az.
Max El.
End time (UTC)
End Az.
4 mins2025-07-01 17:49:00.886Z194.326° SSW2025-07-01 17:51:00.886Z156.7° SSE17.744°2025-07-01 17:53:00.886Z120.668° SE
5 mins2025-07-01 19:28:00.886Z230.234° WSW2025-07-01 19:30:00.886Z182.354° SSW30.273°2025-07-01 19:33:00.886Z111.394° ESE
5 mins2025-07-01 21:08:00.886Z236.063° WSW2025-07-01 21:10:00.886Z177.862° S28.806°2025-07-01 21:13:00.886Z124.313° SE
|